Regional Weather Roundup
Issued by NWS

Home | Current Version | Previous Version | Graphics & Text | Print | Product List | Glossary On
Versions: 1 2 3 4 5 6 7 8 9 10 11 12 13 14 15 16 17 18 19 20 21 22 23 24 25 26 27 28 29 30 31 32 33 34 35 36 37 38 39 40 41 42 43 44 45 46 47 48 49 50
000
ASUS44 KMEG 262200
RWRTN
TENNESSEE HOURLY STATE WEATHER ROUNDUP
NATIONAL WEATHER SERVICE MEMPHIS TN
500 PM CDT THU MAR 26 2015

TNZ002-004-019-021-049-052-054-088>092-262300-
WEST TENNESSEE

CITY           SKY/WX    TMP DP  RH WIND       PRES   REMARKS
MEMPHIS INTL   LGT RAIN  48  43  82 N10       29.97F
NWS MEMPHIS      N/A     47 N/A N/A MISG        N/A
JACKSON        CLOUDY    46  42  86 N10       29.97F
DYERSBURG      CLOUDY    45  30  57 N9G18     30.01R
UNION CITY     PTSUNNY   43  43 100 N10       29.98S
PARIS          CLOUDY    43  39  87 N7        29.97S
LEXINGTON      CLOUDY    45  41  87 N9        29.94R
SAVANNAH       CLOUDY    45  45 100 N17       29.95R
$$

TNZ008-025-027-028-033-062-065-066-262300-
NORTH MIDDLE TENNESSEE

CITY           SKY/WX    TMP DP  RH WIND       PRES   REMARKS
NASHVILLE      CLOUDY    46  43  89 N13G21    29.92R
CLARKSVILLE    CLOUDY    44  41  89 N12       29.96S
COOKEVILLE     CLOUDY    50  46  87 N12       29.86R
CROSSVILLE     RAIN      54  51  90 NW8       29.81R FOG
$$

TNZ061-075-076-078-094-096-097-262300-
SOUTH MIDDLE TENNESSEE

CITY           SKY/WX    TMP DP  RH WIND       PRES   REMARKS
FAYETTEVILLE   CLOUDY    52  46  82 N15G23    29.84R
TULLAHOMA      CLOUDY    48  45  87 NW16      29.87R
WINCHESTER     CLOUDY    54  50  87 N14       29.85R
COLUMBIA       CLOUDY   N/A N/A N/A N10       29.90S
SHELBYVILLE    CLOUDY    50  48  93 N13       29.90R
$$

TNZ017-018-042-046-047-262300-
NORTHEAST TENNESSEE

CITY           SKY/WX    TMP DP  RH WIND       PRES   REMARKS
TRI CITIES     CLOUDY    73  48  41 SW16      29.70F
ELIZABETHTON   CLEAR     70  52  52 W6        29.70F
$$

TNZ012-013-036-069-073-074-262300-
CENTRAL EAST TENNESSEE

CITY           SKY/WX    TMP DP  RH WIND       PRES   REMARKS
KNOXVILLE      CLOUDY    73  49  42 SW18      29.70F
OAK RIDGE      LGT RAIN  63  59  87 W7        29.76R FOG
GATLINBURG     CLEAR     75  45  33 W10       29.68F
$$

TNZ083-085-099-262300-
SOUTHEAST TENNESSEE

CITY           SKY/WX    TMP DP  RH WIND       PRES   REMARKS
CHATTANOOGA    CLOUDY    75  49  39 S12       29.74F
$$

SKY/WX REPORTED AS FAIR MEANS FEW OR NO CLOUDS BELOW
12 THOUSAND FEET.




USA.gov is the U.S. government's official web portal to all federal, state and local government web resources and services.